Newport, Oregon, United States (97365)
Lat: 44.64N, Lon: 124.05W
Wx Zone: ORZ002
Local Info
Past Weather Observations for Today

NOTE: This archive is for the closest National Weather Service station to Newport. Information may differ from the station used for current weather conditions.

Click here for Long-term Archive

Time Weather Temperature Dewpoint Humidity Pressure Winds Precip Visibility
19:55
Partly Cloudy
50°F / 10°C 46°F / 8°C 88% 29.98 in
(1015 mb)
SE 4.6 mph
(SE 7 kph)
- 10SM
19:35
Mostly Cloudy
50°F / 10°C 48°F / 9°C 94% 29.98 in
(1015 mb)
ESE 5.8 mph
(ESE 9 kph)
- 10SM
19:15
Partly Cloudy
50°F / 10°C 46°F / 8°C 88% 29.98 in
(1015 mb)
SE 4.6 mph
(SE 7 kph)
- 10SM
18:55
Partly Cloudy
50°F / 10°C 48°F / 9°C 94% 29.98 in
(1015 mb)
SE 4.6 mph
(SE 7 kph)
- 10SM
18:35
Mostly Cloudy
50°F / 10°C 48°F / 9°C 94% 29.98 in
(1015 mb)
ESE 5.8 mph
(ESE 9 kph)
- 10SM
18:15
Mostly Cloudy
50°F / 10°C 50°F / 10°C 100% 29.98 in
(1015 mb)
ESE 4.6 mph
(ESE 7 kph)
- 10SM
17:55
Mostly Cloudy
52°F / 11°C 50°F / 10°C 94% 29.98 in
(1015 mb)
ESE 4.6 mph
(ESE 7 kph)
- 10SM
17:35
Overcast
52°F / 11°C 50°F / 10°C 94% 29.98 in
(1015 mb)
Calm - 10SM
17:15
Overcast
52°F / 11°C 50°F / 10°C 94% 29.98 in
(1015 mb)
Calm - 10SM
16:55
Overcast
52°F / 11°C 50°F / 10°C 94% 29.98 in
(1015 mb)
Calm - 10SM
16:35
Overcast
54°F / 12°C 50°F / 10°C 88% 29.98 in
(1015 mb)
Calm - 10SM
16:15
Overcast
54°F / 12°C 50°F / 10°C 88% 29.98 in
(1015 mb)
Calm - 10SM
15:55
Mostly Cloudy
54°F / 12°C 50°F / 10°C 88% 29.98 in
(1015 mb)
Calm - 10SM
15:35
Partly Cloudy
54°F / 12°C 50°F / 10°C 88% 29.98 in
(1015 mb)
S 5.8 mph
(S 9 kph)
- 10SM
15:15
Mostly Cloudy
55°F / 13°C 50°F / 10°C 82% 29.98 in
(1015 mb)
SSE 4.6 mph
(SSE 7 kph)
- 10SM
14:55
Mostly Cloudy
55°F / 13°C 50°F / 10°C 82% 29.98 in
(1015 mb)
SSE 5.8 mph
(SSE 9 kph)
- 10SM
14:35
Partly Cloudy
55°F / 13°C 50°F / 10°C 82% 29.98 in
(1015 mb)
SSE 5.8 mph
(SSE 9 kph)
- 10SM
14:15
Partly Cloudy
55°F / 13°C 50°F / 10°C 82% 29.98 in
(1015 mb)
SSE 5.8 mph
(SSE 9 kph)
- 10SM
13:55
Partly Cloudy
54°F / 12°C 50°F / 10°C 88% 29.98 in
(1015 mb)
SE 5.8 mph
(SE 9 kph)
- 10SM
13:35
Mostly Cloudy
54°F / 12°C 50°F / 10°C 88% 29.98 in
(1015 mb)
SE 4.6 mph
(SE 7 kph)
- 10SM
13:15
Mostly Cloudy
Light Rain
54°F / 12°C 50°F / 10°C 88% 29.98 in
(1015 mb)
SSE 5.8 mph
(SSE 9 kph)
- 5SM
12:55
Partly Cloudy
54°F / 12°C 50°F / 10°C 88% 29.98 in
(1015 mb)
SSE 5.8 mph
(SSE 9 kph)
- 10SM
12:35
Partly Cloudy
55°F / 13°C 52°F / 11°C 88% 29.98 in
(1015 mb)
S 9.2 mph
(S 15 kph)
- 10SM
12:15
Mostly Cloudy
54°F / 12°C 52°F / 11°C 94% 29.98 in
(1015 mb)
S 9.2 mph
(S 15 kph)
- 7SM
11:55
Mostly Cloudy
54°F / 12°C 50°F / 10°C 88% 30.01 in
(1016 mb)
S 6.9 mph
(S 11 kph)
- 10SM
11:35
Partly Cloudy
Drizzle
54°F / 12°C 50°F / 10°C 88% 30.01 in
(1016 mb)
SSE 8.1 mph
(SSE 13 kph)
- 10SM
11:15
Partly Cloudy
54°F / 12°C 52°F / 11°C 94% 30.01 in
(1016 mb)
SE 5.8 mph
(SE 9 kph)
- 10SM
10:55
Overcast
Light Rain
54°F / 12°C 50°F / 10°C 88% 30.01 in
(1016 mb)
SE 6.9 mph
(SE 11 kph)
0.01 in
(0.25 mm)
10SM
10:35
Partly Cloudy
Rain
52°F / 11°C 50°F / 10°C 94% 30.01 in
(1016 mb)
SE 6.9 mph
(SE 11 kph)
0.01 in
(0.25 mm)
10SM
10:15
Partly Cloudy
Rain
52°F / 11°C 50°F / 10°C 94% 30.01 in
(1016 mb)
ESE 5.8 mph
(ESE 9 kph)
- 10SM
09:55
Partly Cloudy
52°F / 11°C 50°F / 10°C 94% 30.01 in
(1016 mb)
ESE 5.8 mph
(ESE 9 kph)
- 10SM
09:35
Partly Cloudy
Drizzle
52°F / 11°C 50°F / 10°C 94% 30.01 in
(1016 mb)
E 5.8 mph
(E 9 kph)
- 10SM
09:15
Mostly Cloudy
50°F / 10°C 50°F / 10°C 100% 30.01 in
(1016 mb)
ESE 5.8 mph
(ESE 9 kph)
- 10SM
08:55
Partly Cloudy
50°F / 10°C 50°F / 10°C 100% 30.01 in
(1016 mb)
E 6.9 mph
(E 11 kph)
- 10SM
08:35
Partly Cloudy
50°F / 10°C 50°F / 10°C 100% 30.01 in
(1016 mb)
E 6.9 mph
(E 11 kph)
- 10SM
08:15
Partly Cloudy
50°F / 10°C 50°F / 10°C 100% 30.01 in
(1016 mb)
E 6.9 mph
(E 11 kph)
- 10SM
07:55
Mostly Cloudy
50°F / 10°C 50°F / 10°C 100% 29.98 in
(1015 mb)
E 6.9 mph
(E 11 kph)
- 10SM
07:35
Mostly Cloudy
50°F / 10°C 50°F / 10°C 100% 30.01 in
(1016 mb)
E 6.9 mph
(E 11 kph)
- 10SM
07:15
Mostly Cloudy
52°F / 11°C 50°F / 10°C 94% 30.01 in
(1016 mb)
ESE 6.9 mph
(ESE 11 kph)
- 10SM
06:55
Overcast
Rain
52°F / 11°C 50°F / 10°C 94% 30.01 in
(1016 mb)
SE 4.6 mph
(SE 7 kph)
0.02 in
(0.51 mm)
5SM
06:35
Overcast
Drizzle
52°F / 11°C 50°F / 10°C 94% 30.01 in
(1016 mb)
ESE 5.8 mph
(ESE 9 kph)
0.01 in
(0.25 mm)
10SM
06:15
Overcast
Light Rain
52°F / 11°C 50°F / 10°C 94% 30.01 in
(1016 mb)
SE 6.9 mph
(SE 11 kph)
0.01 in
(0.25 mm)
10SM
05:55
Mostly Cloudy
Light Rain
52°F / 11°C 50°F / 10°C 94% 30.01 in
(1016 mb)
SE 4.6 mph
(SE 7 kph)
0.01 in
(0.25 mm)
5SM
05:35
Mostly Cloudy
52°F / 11°C 50°F / 10°C 94% 30.01 in
(1016 mb)
ESE 6.9 mph
(ESE 11 kph)
0.01 in
(0.25 mm)
10SM
05:15
Mostly Cloudy
52°F / 11°C 50°F / 10°C 94% 30.01 in
(1016 mb)
SE 6.9 mph
(SE 11 kph)
0.01 in
(0.25 mm)
10SM
04:55
Overcast
Light Rain
52°F / 11°C 50°F / 10°C 94% 30.01 in
(1016 mb)
ESE 4.6 mph
(ESE 7 kph)
0.09 in
(2.29 mm)
7SM
04:35
Mostly Cloudy
Light Rain
52°F / 11°C 50°F / 10°C 94% 30.01 in
(1016 mb)
SSE 4.6 mph
(SSE 7 kph)
0.06 in
(1.52 mm)
7SM
04:15
Overcast
Light Rain
52°F / 11°C 50°F / 10°C 94% 30.01 in
(1016 mb)
SSE 5.8 mph
(SSE 9 kph)
0.04 in
(1.02 mm)
7SM
03:55
Mostly Cloudy
Rain
52°F / 11°C 50°F / 10°C 94% 30.01 in
(1016 mb)
S 6.9 mph
(S 11 kph)
0.05 in
(1.27 mm)
5SM
03:35
Mostly Cloudy
Light Rain
52°F / 11°C 52°F / 11°C 100% 30.01 in
(1016 mb)
S 8.1 mph
(S 13 kph)
0.03 in
(0.76 mm)
10SM
03:15
Overcast
Light Rain
52°F / 11°C 52°F / 11°C 100% 30.01 in
(1016 mb)
S 6.9 mph
(S 11 kph)
0.03 in
(0.76 mm)
4SM
02:55
Mostly Cloudy
Rain
54°F / 12°C 52°F / 11°C 94% 30.01 in
(1016 mb)
S 11.5 mph
(S 19 kph)
0.01 in
(0.25 mm)
5SM
02:35
Partly Cloudy
54°F / 12°C 52°F / 11°C 94% 30.01 in
(1016 mb)
S 8.1 mph
(S 13 kph)
- 7SM
02:15
Partly Cloudy
54°F / 12°C 52°F / 11°C 94% 30.01 in
(1016 mb)
S 8.1 mph
(S 13 kph)
- 7SM
01:55
Partly Cloudy
Fog And Mist
52°F / 11°C 52°F / 11°C 100% 30.01 in
(1016 mb)
S 6.9 mph
(S 11 kph)
- 5SM
01:35
Partly Cloudy
Fog And Mist
54°F / 12°C 52°F / 11°C 94% 30.01 in
(1016 mb)
S 10.4 mph
(S 17 kph)
- 5SM
01:15
Partly Cloudy
54°F / 12°C 52°F / 11°C 94% 30.01 in
(1016 mb)
S 9.2 mph
(S 15 kph)
- 7SM
00:55
Partly Cloudy
54°F / 12°C 52°F / 11°C 94% 30.01 in
(1016 mb)
S 9.2 mph
(S 15 kph)
- 7SM
00:35
Mostly Cloudy
Fog And Mist
54°F / 12°C 52°F / 11°C 94% 30.01 in
(1016 mb)
S 8.1 mph
(S 13 kph)
- 5SM
00:15
Mostly Cloudy
Fog And Mist
54°F / 12°C 52°F / 11°C 94% 30.01 in
(1016 mb)
S 8.1 mph
(S 13 kph)
- 5SM
Time Weather Temperature Dewpoint Humidity Pressure Winds Precip Visibility


Weather for websites

WeatherForYou.com, LLC is not responsible for any damages or problems caused by this service. Current weather conditions are obtained from the closest station including government and personal stations which may have varying degrees of accuracy. Weather forecasts are derived from the NOAA NDFD. Like all things, this site belongs to Jesus Christ... He just trusts me to maintain it. If you have any questions or comments email webmaster@weatherforyou.com

Copyright © 2014, WeatherForYou.com LLC. All rights reserved.